SM7SJR-13 Weather Reports


Display with metric or nautical units.
time (UTC)temp
F
wind
direction
speed
MPH
gust
MPH
rain 1hr
in
rain 24hr
in
rain mn
in
humidity
%
barometer
mb
20260904141504 58 199 6.0 12.0 0.01 0.10 0.04 93 997.2
20260904134504 59 218 3.0 13.0 0.00 0.10 0.03 92 997.7
20260904133004 59 206 5.0 12.0 0.00 0.10 0.03 90 998.1
20260904131503 60 181 5.0 12.0 0.00 0.10 0.03 88 998.1
20260904130004 60 214 5.0 9.0 0.00 0.10 0.03 87 998.1
20260904124503 61 225 2.0 12.0 0.00 0.10 0.03 85 998.1
20260904121503 62 243 8.0 13.0 0.00 0.10 0.03 77 998.5
20260904120004 63 249 3.0 10.0 0.00 0.10 0.03 78 998.5
20260904114504 63 243 5.0 12.0 0.00 0.10 0.03 78 998.9
20260904113004 64 242 7.0 13.0 0.00 0.10 0.03 76 998.9
20260904111504 64 234 7.0 15.0 0.00 0.10 0.03 76 999.0
20260904110003 64 241 7.0 16.0 0.00 0.10 0.03 76 999.3
20260904104504 64 259 2.0 14.0 0.00 0.10 0.03 79 999.3
20260904103004 64 273 6.0 13.0 0.00 0.10 0.03 77 999.3
20260904101504 64 272 7.0 13.0 0.00 0.10 0.03 77 999.7
20260904094504 63 257 8.0 15.0 0.00 0.10 0.03 79 999.7
20260904093004 63 244 8.0 18.0 0.00 0.10 0.03 80 999.7
20260904091504 64 240 10.0 18.0 0.00 0.10 0.03 80 999.6
20260904090004 63 262 9.0 16.0 0.00 0.10 0.03 81 999.9
20260904084504 63 280 6.0 21.0 0.00 0.10 0.03 83 1000.1
20260904083005 62 266 9.0 21.0 0.00 0.10 0.03 84 1000.1
20260904081504 62 266 8.0 18.0 0.00 0.10 0.03 87 999.9
20260904080004 62 245 8.0 20.0 0.00 0.10 0.03 87 1000.1
20260904074504 61 247 9.0 17.0 0.00 0.10 0.03 90 999.9
20260904073004 60 241 7.0 20.0 0.00 0.10 0.03 91 999.9
20260904064504 59 248 10.0 17.0 0.00 0.11 0.03 95 1000.2
20260904063004 58 237 9.0 15.0 0.00 0.11 0.03 96 1000.2
20260904061504 58 253 7.0 14.0 0.00 0.11 0.03 96 1000.0
20260904060004 58 246 8.0 14.0 0.00 0.11 0.03 96 1000.1
20260904054504 58 239 7.0 13.0 0.00 0.11 0.03 97 1000.1
20260904053004 58 240 6.0 12.0 0.00 0.11 0.03 97 999.9
20260904050004 58 248 5.0 12.0 0.00 0.11 0.03 97 1000.0
20260904044504 58 243 7.0 14.0 0.00 0.11 0.03 97 1000.0
20260904043004 58 252 9.0 14.0 0.00 0.11 0.03 97 1000.0
20260904041504 58 238 6.0 12.0 0.00 0.11 0.03 98 1000.1
20260904040004 58 214 2.0 8.0 0.00 0.11 0.03 98 1000.1
20260904034504 58 190 0.0 7.0 0.02 0.11 0.03 97 1000.1
20260904033003 58 192 0.0 0.0 0.03 0.11 0.03 97 1000.5
20260904030004 57 222 2.0 3.0 0.03 0.11 0.03 97 1000.5
20260904024504 57 198 3.0 5.0 0.01 0.09 0.01 97 1000.6
20260904021504 57 236 0.0 0.0 0.00 0.08 0.00 97 1000.9
20260904014504 57 249 3.0 5.0 0.00 0.08 0.00 97 1001.0
20260904013003 57 262 2.0 6.0 0.00 0.08 0.00 97 1000.9
20260904011504 57 247 1.0 6.0 0.00 0.08 0.00 97 1001.1
20260904010004 57 241 5.0 6.0 0.00 0.08 0.00 97 1001.2
20260904004504 57 286 0.0 0.0 0.00 0.08 0.00 97 1001.0
20260904003003 58 289 0.0 0.0 0.00 0.08 0.00 97 1001.1
20260904001504 58 288 0.0 3.0 0.00 0.08 0.00 97 1001.2
20260904000003 58 302 1.0 6.0 0.00 0.08 0.00 97 1001.2
20260903231503 59 328 3.0 6.0 0.00 0.08 0.00 97 1001.1
20260903230005 59 350 1.0 5.0 0.00 0.08 0.00 97 1001.0
20260903223004 60 307 4.0 8.0 0.00 0.08 0.00 97 1001.0
20260903221504 60 155 0.0 0.0 0.01 0.08 0.00 97 1001.3
20260903220004 60 155 0.0 0.0 0.01 0.08 0.00 97 1001.3
20260903214503 60 155 0.0 0.0 0.03 0.08 0.08 97 1001.3
20260903213004 60 155 0.0 0.0 0.03 0.08 0.08 97 1001.4
20260903211504 60 155 0.0 0.0 0.02 0.07 0.07 97 1001.5
20260903210004 60 155 0.0 0.0 0.02 0.07 0.07 97 1001.5
20260903204503 61 155 0.0 0.0 0.00 0.05 0.05 97 1002.0
20260903203004 61 155 0.0 0.0 0.00 0.05 0.05 97 1002.0
20260903201504 61 155 0.0 3.0 0.00 0.05 0.05 97 1002.1
20260903200004 61 150 1.0 5.0 0.01 0.05 0.05 97 1002.2
20260903194503 61 146 0.0 3.0 0.01 0.05 0.05 96 1002.3
20260903193004 61 149 2.0 3.0 0.01 0.05 0.05 96 1002.5
20260903191504 61 161 2.0 3.0 0.01 0.05 0.05 96 1002.7
20260903190004 61 163 0.0 3.0 0.01 0.04 0.04 96 1002.9
20260903184505 61 151 2.0 5.0 0.01 0.04 0.04 96 1003.1
20260903183004 61 155 2.0 7.0 0.01 0.04 0.04 96 1003.5
20260903181503 61 162 2.0 5.0 0.01 0.04 0.04 96 1003.7
20260903180004 61 168 2.0 3.0 0.00 0.03 0.03 96 1003.8
20260903174504 61 165 1.0 3.0 0.00 0.03 0.03 95 1003.9
20260903171504 61 167 2.0 6.0 0.00 0.03 0.03 95 1004.2
20260903164504 61 185 2.0 6.0 0.00 0.03 0.03 95 1004.5
20260903163004 61 153 1.0 6.0 0.00 0.03 0.03 95 1004.6
20260903161503 61 135 2.0 3.0 0.01 0.03 0.03 95 1004.8
20260903160004 61 139 0.0 5.0 0.01 0.03 0.03 95 1005.3
20260903154504 61 152 1.0 3.0 0.01 0.03 0.03 95 1005.3
20260903153005 61 145 2.0 6.0 0.01 0.03 0.03 94 1005.8
20260903151504 61 172 3.0 7.0 0.00 0.02 0.02 94 1006.0
20260903144503 62 191 5.0 10.0 0.01 0.02 0.02 91 1006.3